TimePST,TemperatureF,Dew PointF,Humidity,Sea Level PressureIn,VisibilityMPH,Wind Direction,Wind SpeedMPH,Gust SpeedMPH,PrecipitationIn,Events,Conditions,WindDirDegrees,DateUTC
12:53 AM,18.0,10.9,74,30.40,10.0,Calm,Calm,-,N/A,,Overcast,0,2013-01-13 08:53:00
1:53 AM,19.0,12.0,74,30.40,10.0,Calm,Calm,-,N/A,,Overcast,0,2013-01-13 09:53:00
2:53 AM,19.0,12.9,77,30.41,10.0,Calm,Calm,-,N/A,,Overcast,0,2013-01-13 10:53:00
3:53 AM,19.0,14.0,81,30.40,10.0,Calm,Calm,-,N/A,,Overcast,0,2013-01-13 11:53:00
4:53 AM,19.9,12.9,74,30.42,10.0,Calm,Calm,-,N/A,,Overcast,0,2013-01-13 12:53:00
5:53 AM,16.0,12.0,84,30.44,10.0,Calm,Calm,-,N/A,,Clear,0,2013-01-13 13:53:00
6:53 AM,15.1,10.9,84,30.47,10.0,North,5.8,-,N/A,,Clear,360,2013-01-13 14:53:00
7:53 AM,15.1,10.0,80,30.48,10.0,North,5.8,-,N/A,,Clear,350,2013-01-13 15:53:00
8:53 AM,19.9,12.9,74,30.50,10.0,NNE,6.9,-,N/A,,Clear,30,2013-01-13 16:53:00
9:53 AM,21.9,14.0,72,30.51,10.0,NNE,8.1,-,N/A,,Clear,20,2013-01-13 17:53:00
10:53 AM,23.0,14.0,68,30.51,10.0,NNE,11.5,-,N/A,,Clear,30,2013-01-13 18:53:00
11:53 AM,25.0,14.0,63,30.48,10.0,NNE,10.4,-,N/A,,Clear,30,2013-01-13 19:53:00
12:53 PM,26.1,14.0,60,30.47,10.0,North,9.2,-,N/A,,Clear,10,2013-01-13 20:53:00
1:53 PM,27.0,12.9,56,30.47,10.0,NNE,5.8,-,N/A,,Clear,20,2013-01-13 21:53:00
2:53 PM,27.0,14.0,58,30.46,10.0,North,3.5,-,N/A,,Clear,10,2013-01-13 22:53:00
3:53 PM,25.0,15.1,66,30.47,10.0,NE,4.6,-,N/A,,Clear,50,2013-01-13 23:53:00
4:53 PM,23.0,15.1,72,30.47,10.0,North,4.6,-,N/A,,Scattered Clouds,10,2013-01-14 00:53:00
5:53 PM,21.9,14.0,72,30.48,10.0,NNW,3.5,-,N/A,,Overcast,340,2013-01-14 01:53:00
6:53 PM,19.9,12.9,74,30.48,10.0,North,4.6,-,N/A,,Clear,350,2013-01-14 02:53:00
7:53 PM,19.9,14.0,78,30.48,10.0,North,5.8,-,N/A,,Clear,350,2013-01-14 03:53:00
8:53 PM,19.9,15.1,81,30.48,10.0,North,6.9,-,N/A,,Overcast,360,2013-01-14 04:53:00
9:53 PM,19.9,15.1,81,30.48,10.0,North,9.2,-,N/A,,Overcast,10,2013-01-14 05:53:00
10:53 PM,19.9,16.0,85,30.47,10.0,North,5.8,-,N/A,,Overcast,10,2013-01-14 06:53:00
11:53 PM,19.9,15.1,81,30.48,10.0,NNE,5.8,-,N/A,,Overcast,30,2013-01-14 07:53:00